SL-19 DEB, 23479

Orbit data source: Space-Track

SL-19 DEB, 23479 is space debris in LEO originally from a launch on Mon, 26 Dec 1994 UTC launched from the Tyuratam Missile And Space Complex (TTMTR). Debris objects in space refer to the collection of defunct objects orbiting the Earth. Examples of debris include non-operational satellites, rocket bodies, and fragments generated from explosions, collisions, or faulty payload assembly.

Loading next visibility...
Identifier
23479, 1994-085C
Orbit
LEO
Country
Flag of CISCIS
Related business
Manufacturer
Unknown
Mission
Spacecraft
Bus & Motor
Unknown
Mass
Unknown
Launch date (UTC)
1994-12-26 (31 years ago)
Launch vehicle
Unknown
Launch site
Tyuratam Missile And Space Complex (TTMTR)
Object type
Payload
Rocket body
Debris
Shape & HBR
Unknown
Radar Cross Section
Medium (>0.1 m² and <1 m²)

Expand to show TLE details & history
Last TLE update: 10 hours ago

TLE from 10 hours ago
0 SL-19 DEB
1 23479U 94085C   25261.13705237 -.00000640  00000-0 -14083-1 0  9994
2 23479  65.0462 318.0631 0080534  57.9596 328.4705 11.45213967282069
Epoch: 2025-09-18T03:17Z
TLE epoch observation values (Epoch: 2025-09-18T03:17:21.324Z)
Latitude
23.40211°
Longitude
-77.01606°
Altitude
1,880.636 km
Speed
6.974 km/s
True Right ascension
21h 58m 30s
True Declination
23° 17' 39"
Sunlit
Object was in full shadow at epoch
Visualization orbit readout
Latitude
Unknown
Longitude
Unknown
Altitude
Unknown
Speed
Unknown
Apparent Right ascension
Unknown
Apparent Declination
Unknown
Sunlit
N/A
Visualization observer readout
Local Sidereal Time
06:15:51
Azimuth
Unknown
Elevation
Unknown
Doppler factor
Unknown
Orbital elements
Apogee altitude
2,001.594 km
Perigee altitude
1,867.702 km
Semi-major axis
8,312.785 km
Eccentricity
0.00805
Inclination
65.0462°
RAAN
318.0631°
Arg. of periapsis
57.9596°
True anomaly
327.98374°
Mean anomaly
328.4705°
Eccentric anomaly
328.22754°
Mean motion
2.86367 °/min
Orbital period
125.71 mins
BSTAR
-0.014083
Loading maneuver chart data...
Computing Atmospheric mass density...
Loading historical data...
Loading historical data...
Loading historical data...
Loading historical data...
Loading historical data...
Loading historical data...
Loading historical data...

Documentation

Showing up to 5 results
|